Regional Weather Roundup
Issued by NWS Columbia, SC

Home | Current Version | Previous Version | Text Only | Print | Product List | Glossary On
Versions: 1 2 3 4 5 6 7 8 9 10 11 12 13 14 15 16 17 18 19 20 21 22 23 24 25 26 27 28 29 30 31 32 33 34 35 36 37 38 39 40 41 42 43 44 45 46 47 48 49 50
000
ASUS42 KCAE 041410
RWRCAE
REGIONAL WEATHER ROUNDUP
NATIONAL WEATHER SERVICE COLUMBIA SC
900 AM EST THU MAR 04 2021

NOTE: "FAIR" INDICATES FEW OR NO CLOUDS BELOW 12,000 FEET WITH NO
SIGNIFICANT WEATHER AND/OR OBSTRUCTIONS TO VISIBILITY.

NOT ALL STATIONS ARE QUALITY CONTROLLED BY THE NATIONAL
WEATHER SERVICE. USE DATA WITH CAUTION...ESPECIALLY
DEWPOINT OBSERVATIONS.

SCZ001>056-GAZ040-063>065-077-041500-
...UPSTATE SOUTH CAROLINA...

CITY           SKY/WX    TMP DP  RH WIND       PRES   REMARKS
ANDERSON       SUNNY     52  37  56 NW6       30.07R
LIBERTY        SUNNY     48  39  70 CALM      30.06R
SPARTANBURG    SUNNY     54  32  43 CALM      30.05S
CLEMSON        SUNNY     51  38  60 NW3       30.08R
GREENVILLE     SUNNY     59  29  31 NE3       30.07R
GREENWOOD      SUNNY     54  35  48 N5        30.08R
GREER          SUNNY     56  27  32 N8        30.07R
ROCK HILL      SUNNY     55  33  43 NW6       30.04S
LAURENS        SUNNY     54  32  43 N5        30.06R HAZE


...CENTRAL SOUTH CAROLINA...

CITY           SKY/WX    TMP DP  RH WIND       PRES   REMARKS
COLUMBIA APT   SUNNY     48  42  80 CALM      30.05R
COLUMBIA OWENS SUNNY     51  36  56 CALM      30.06S
MCENTIRE ANGB  SUNNY     51  39  63 CALM      30.04R
ORANGEBURG     SUNNY     53  38  56 N6        30.05R
SUMTER SHAW    SUNNY     56  31  38 N3        30.04R
NEWBERRY       SUNNY     50  32  50 CALM      30.09
AIKEN          FAIR      54  33  46 N5        30.07R
BARNWELL       FAIR      50  41  71 CALM      30.06R
MANNING        FAIR      50  37  62 N5        30.05S
LANCASTER      SUNNY     46  39  76 CALM      30.04S
WINNSBORO      SUNNY     52  34  50 N5        30.05R


...EASTERN AND COASTAL SOUTH CAROLINA...

CITY           SKY/WX    TMP DP  RH WIND       PRES   REMARKS
MYRTLE BEACH   SUNNY     53  39  59 N8        30.03R
N MYRTLE BCH   SUNNY     54  35  48 N8        30.01R
CONWAY         FAIR      50  39  66 CALM      30.03R
MARION         FAIR      50  37  62 CALM      30.03R
HARTSVILLE     FAIR      54  30  40 VRB3      30.03S
FLORENCE       SUNNY     55  31  39 N7        30.03R
DARLINGTON     SUNNY     54  37  52 NW7       30.04R
CHARLESTON APT SUNNY     56  43  61 VRB3      30.04R
MOUNT PLEASANT FAIR      55  43  62 CALM      30.04R
WALTERBORO     SUNNY     50  41  71 N3        30.06S
BEAUFORT       SUNNY     55  46  71 N7        30.05R
HILTON HEAD    SUNNY     55  46  71 N7        30.06R


...EASTERN GEORGIA...

CITY           SKY/WX    TMP DP  RH WIND       PRES   REMARKS
AUGUSTA BUSH F SUNNY     50  41  71 N5        30.06R
AUGUSTA DANIEL SUNNY     52  33  48 N9        30.07R
THOMSON        SUNNY     46  37  70 N5        30.08S
WASHINGTON     FAIR      50  32  50 NW3       30.08R
CLAXTON        FAIR      50  44  80 CALM      30.07R
SYLVANIA       SUNNY     51  45  79 CALM      30.06S
STATESBORO     SUNNY     49  43  79 CALM      30.06S
SAVANNAH       SUNNY     51  46  83 NW5       30.06R


...SOUTHERN NORTH CAROLINA...

CITY           SKY/WX    TMP DP  RH WIND       PRES   REMARKS
CHARLOTTE      MOSUNNY   53  31  42 NW7       30.04R
MONROE         SUNNY     53  33  46 W5        30.03R
WADESBORO      SUNNY     48  36  63 CALM      30.03S
ROCKINGHAM     SUNNY     51  31  47 NW3       30.03R
RUTHERFORDTON  SUNNY     50  34  53 S5        30.06S
ASHEVILLE      SUNNY     49  30  48 N13       30.07R

$$



USA.gov is the U.S. government's official web portal to all federal, state and local government web resources and services.